Location: Crescent
(42.8242°N, 73.7329°W)
Time: 22:06:41
(UTC+00:00)

Vanguard 2 Rocket - Pass Details

Date: 15 February 2026
Orbit: 553 x 3286 km, 32.9° (Epoch: 9 March)

Event Time Altitude Azimuth Distance (km) Brightness Sun altitude
Rises 16:27:54 0° 215° (SW) 7,251 12.0 33.9°
Reaches altitude 10° 16:33:41 10° 207° (SSW) 6,186 12.0 34.1°
Maximum altitude 16:49:17 33° 154° (SSE) 3,964 12.0 34.5°
Drops below altitude 10° 17:00:46 10° 97° (E) 4,584 10.7 34.6°
Sets 17:04:14 0° 88° (E) 5,224 10.8 34.7°
